PHENX88 YMEN-YWSL

Flight info

Callsign PHENX88
Flight time 0h 53m
Altitude 3500
Route DSN DCT GMH DCT NRW DCT DRN DCT YLTV DCT FYN
Aircraft EC45/L-SDFGRY/C

Departure

Time 2026-04-17 09:12
Airport Melbourne Essendon Airport (YMEN)

Arrival

Time 2026-04-17 10:06
Airport West Sale Airport (YWSL)
Time Latitude Longitude Altitude Speed Heading
2026-04-17 09:02 -37.72526 144.90232 264 ft 0 kts 267°
2026-04-17 09:10 -37.72523 144.90226 269 ft 4 kts 244°
2026-04-17 09:10 -37.72644 144.90224 302 ft 39 kts 179°
2026-04-17 09:10 -37.73018 144.90255 369 ft 65 kts 178°
2026-04-17 09:11 -37.73411 144.90606 466 ft 83 kts 119°
2026-04-17 09:11 -37.73525 144.91391 519 ft 96 kts 101°
2026-04-17 09:11 -37.73604 144.92240 600 ft 99 kts 109°
2026-04-17 09:11 -37.73664 144.93119 741 ft 101 kts 103°
2026-04-17 09:12 -37.73729 144.94003 837 ft 101 kts 103°
2026-04-17 09:12 -37.73830 144.94875 896 ft 100 kts 107°
2026-04-17 09:12 -37.73969 144.95740 959 ft 100 kts 108°
2026-04-17 09:12 -37.74144 144.96594 1082 ft 100 kts 113°
2026-04-17 09:13 -37.74342 144.97436 1204 ft 100 kts 113°
2026-04-17 09:13 -37.74527 144.98283 1311 ft 100 kts 111°
2026-04-17 09:13 -37.74694 144.99139 1391 ft 103 kts 108°
2026-04-17 09:13 -37.74798 145.00054 1444 ft 106 kts 103°
2026-04-17 09:14 -37.74897 145.00970 1484 ft 104 kts 104°
2026-04-17 09:14 -37.74999 145.01896 1475 ft 114 kts 107°
2026-04-17 09:14 -37.75161 145.02968 1501 ft 125 kts 106°
2026-04-17 09:14 -37.75316 145.04017 1497 ft 121 kts 107°
2026-04-17 09:15 -37.75480 145.05082 1497 ft 125 kts 108°
2026-04-17 09:15 -37.75649 145.06166 1501 ft 125 kts 107°
2026-04-17 09:15 -37.75817 145.07245 1504 ft 125 kts 107°
2026-04-17 09:15 -37.75978 145.08320 1501 ft 124 kts 108°
2026-04-17 09:16 -37.76216 145.09343 1497 ft 119 kts 124°
2026-04-17 09:16 -37.76636 145.10219 1503 ft 117 kts 130°
2026-04-17 09:16 -37.77097 145.11075 1499 ft 119 kts 132°
2026-04-17 09:16 -37.77658 145.11816 1498 ft 116 kts 147°
2026-04-17 09:17 -37.78304 145.12412 1502 ft 114 kts 152°
2026-04-17 09:17 -37.78999 145.12903 1498 ft 115 kts 157°
2026-04-17 09:17 -37.79712 145.13375 1506 ft 114 kts 158°
2026-04-17 09:17 -37.80404 145.13841 1500 ft 112 kts 157°
2026-04-17 09:18 -37.81106 145.14294 1503 ft 114 kts 158°
2026-04-17 09:18 -37.81817 145.14754 1504 ft 115 kts 158°
2026-04-17 09:18 -37.82525 145.15225 1505 ft 114 kts 158°
2026-04-17 09:18 -37.83224 145.15689 1506 ft 112 kts 157°
2026-04-17 09:19 -37.83928 145.16140 1504 ft 114 kts 158°
2026-04-17 09:19 -37.84628 145.16599 1502 ft 113 kts 158°
2026-04-17 09:19 -37.85089 145.16901 1499 ft 113 kts 157°
2026-04-17 09:19 -37.85780 145.17353 1503 ft 112 kts 158°
2026-04-17 09:20 -37.86477 145.17812 1501 ft 113 kts 158°
2026-04-17 09:20 -37.87172 145.18282 1498 ft 113 kts 158°
2026-04-17 09:20 -37.87861 145.18755 1499 ft 113 kts 158°
2026-04-17 09:20 -37.88557 145.19237 1500 ft 115 kts 158°
2026-04-17 09:21 -37.89254 145.19725 1506 ft 113 kts 157°
2026-04-17 09:21 -37.89938 145.20200 1497 ft 112 kts 157°
2026-04-17 09:21 -37.90634 145.20675 1500 ft 115 kts 158°
2026-04-17 09:21 -37.91335 145.21150 1497 ft 113 kts 160°
2026-04-17 09:22 -37.92076 145.21393 1500 ft 108 kts 179°
2026-04-17 09:22 -37.92817 145.21328 1491 ft 108 kts 194°
2026-04-17 09:22 -37.93554 145.21110 1500 ft 109 kts 196°
2026-04-17 09:22 -37.94278 145.20862 1496 ft 107 kts 197°
2026-04-17 09:23 -37.95017 145.20783 1504 ft 110 kts 174°
2026-04-17 09:23 -37.95747 145.21113 1504 ft 113 kts 162°
2026-04-17 09:23 -37.96457 145.21524 1506 ft 111 kts 161°
2026-04-17 09:23 -37.97153 145.21950 1504 ft 112 kts 161°
2026-04-17 09:24 -37.97852 145.22384 1503 ft 112 kts 160°
2026-04-17 09:24 -37.98561 145.22804 1504 ft 113 kts 160°
2026-04-17 09:24 -37.99260 145.23215 1504 ft 112 kts 161°
2026-04-17 09:24 -37.99957 145.23653 1503 ft 113 kts 156°
2026-04-17 09:25 -38.00524 145.24371 1504 ft 118 kts 133°
2026-04-17 09:25 -38.00809 145.25377 1505 ft 125 kts 109°
2026-04-17 09:25 -38.00954 145.26467 1505 ft 125 kts 107°
2026-04-17 09:25 -38.01103 145.27567 1500 ft 128 kts 106°
2026-04-17 09:26 -38.01274 145.28671 1496 ft 127 kts 107°
2026-04-17 09:26 -38.01445 145.29767 1503 ft 127 kts 107°
2026-04-17 09:26 -38.01617 145.30864 1502 ft 127 kts 107°
2026-04-17 09:26 -38.01786 145.31963 1502 ft 127 kts 107°
2026-04-17 09:27 -38.01955 145.33062 1498 ft 127 kts 107°
2026-04-17 09:27 -38.02121 145.34164 1503 ft 127 kts 107°
2026-04-17 09:27 -38.02284 145.35268 1499 ft 127 kts 107°
2026-04-17 09:27 -38.02461 145.36365 1498 ft 127 kts 109°
2026-04-17 09:28 -38.02662 145.37452 1501 ft 127 kts 110°
2026-04-17 09:28 -38.02865 145.38538 1504 ft 126 kts 110°
2026-04-17 09:28 -38.03068 145.39623 1499 ft 126 kts 109°
2026-04-17 09:28 -38.03278 145.40701 1498 ft 127 kts 110°
2026-04-17 09:29 -38.03494 145.41796 1504 ft 129 kts 110°
2026-04-17 09:29 -38.03710 145.42894 1503 ft 128 kts 110°
2026-04-17 09:29 -38.03921 145.43987 1506 ft 127 kts 110°
2026-04-17 09:29 -38.04130 145.45077 1502 ft 127 kts 110°
2026-04-17 09:30 -38.04341 145.46169 1498 ft 128 kts 110°
2026-04-17 09:30 -38.04547 145.47262 1499 ft 127 kts 110°
2026-04-17 09:30 -38.04749 145.48349 1499 ft 126 kts 109°
2026-04-17 09:30 -38.04952 145.49435 1499 ft 127 kts 110°
2026-04-17 09:31 -38.05155 145.50520 1502 ft 126 kts 109°
2026-04-17 09:31 -38.05357 145.51602 1504 ft 126 kts 109°
2026-04-17 09:31 -38.05561 145.52684 1503 ft 127 kts 109°
2026-04-17 09:31 -38.05782 145.53768 1497 ft 127 kts 109°
2026-04-17 09:32 -38.06014 145.54847 1499 ft 127 kts 110°
2026-04-17 09:32 -38.06241 145.55924 1498 ft 126 kts 110°
2026-04-17 09:32 -38.06508 145.56977 1498 ft 124 kts 123°
2026-04-17 09:32 -38.07108 145.57706 1501 ft 118 kts 155°
2026-04-17 09:33 -38.07770 145.58333 1498 ft 124 kts 135°
2026-04-17 09:33 -38.08154 145.59325 1493 ft 127 kts 113°
2026-04-17 09:33 -38.08367 145.60412 1512 ft 123 kts 107°
2026-04-17 09:33 -38.08504 145.61377 1781 ft 101 kts 108°
2026-04-17 09:34 -38.08587 145.62211 2161 ft 96 kts 108°
2026-04-17 09:34 -38.08676 145.63057 2550 ft 98 kts 108°
2026-04-17 09:34 -38.08773 145.63909 2935 ft 97 kts 108°
2026-04-17 09:34 -38.08872 145.64770 3253 ft 99 kts 107°
2026-04-17 09:35 -38.08969 145.65632 3399 ft 98 kts 107°
2026-04-17 09:35 -38.09060 145.66493 3458 ft 98 kts 107°
2026-04-17 09:35 -38.09145 145.67352 3481 ft 98 kts 107°
2026-04-17 09:35 -38.09240 145.68256 3468 ft 117 kts 107°
2026-04-17 09:36 -38.09406 145.69375 3494 ft 134 kts 107°
2026-04-17 09:36 -38.09574 145.70513 3494 ft 131 kts 107°
2026-04-17 09:36 -38.09742 145.71672 3497 ft 135 kts 107°
2026-04-17 09:36 -38.09961 145.72818 3500 ft 132 kts 113°
2026-04-17 09:37 -38.10219 145.73939 3498 ft 132 kts 114°
2026-04-17 09:37 -38.10482 145.75060 3499 ft 133 kts 114°
2026-04-17 09:37 -38.10744 145.76181 3500 ft 132 kts 114°
2026-04-17 09:37 -38.11007 145.77302 3500 ft 133 kts 114°
2026-04-17 09:38 -38.11269 145.78425 3504 ft 133 kts 114°
2026-04-17 09:38 -38.11534 145.79563 3506 ft 137 kts 114°
2026-04-17 09:38 -38.11802 145.80721 3504 ft 136 kts 114°
2026-04-17 09:38 -38.12068 145.81876 3502 ft 136 kts 114°
2026-04-17 09:39 -38.12335 145.83031 3501 ft 136 kts 114°
2026-04-17 09:39 -38.12602 145.84189 3500 ft 137 kts 114°
2026-04-17 09:39 -38.12871 145.85347 3500 ft 136 kts 114°
2026-04-17 09:39 -38.13137 145.86502 3500 ft 136 kts 114°
2026-04-17 09:40 -38.13404 145.87658 3495 ft 136 kts 114°
2026-04-17 09:40 -38.13667 145.88814 3495 ft 136 kts 114°
2026-04-17 09:40 -38.13926 145.89972 3495 ft 136 kts 114°
2026-04-17 09:40 -38.14184 145.91127 3494 ft 136 kts 114°
2026-04-17 09:41 -38.14442 145.92284 3494 ft 136 kts 114°
2026-04-17 09:41 -38.14701 145.93438 3495 ft 136 kts 114°
2026-04-17 09:41 -38.14962 145.94596 3494 ft 136 kts 114°
2026-04-17 09:41 -38.15221 145.95749 3495 ft 136 kts 114°
2026-04-17 09:42 -38.15464 145.96912 3494 ft 137 kts 110°
2026-04-17 09:42 -38.15694 145.98085 3494 ft 137 kts 112°
2026-04-17 09:42 -38.15941 145.99249 3495 ft 136 kts 113°
2026-04-17 09:42 -38.16192 146.00414 3491 ft 137 kts 113°
2026-04-17 09:43 -38.16446 146.01578 3492 ft 137 kts 113°
2026-04-17 09:43 -38.16693 146.02745 3492 ft 138 kts 109°
2026-04-17 09:43 -38.16805 146.03968 3492 ft 140 kts 101°
2026-04-17 09:43 -38.16868 146.05206 3502 ft 142 kts 101°
2026-04-17 09:44 -38.16913 146.06476 3500 ft 145 kts 100°
2026-04-17 09:44 -38.16955 146.07755 3497 ft 144 kts 100°
2026-04-17 09:44 -38.16995 146.09026 3494 ft 144 kts 100°
2026-04-17 09:44 -38.17034 146.10294 3490 ft 144 kts 100°
2026-04-17 09:45 -38.17074 146.11564 3489 ft 144 kts 100°
2026-04-17 09:45 -38.17116 146.12830 3489 ft 144 kts 100°
2026-04-17 09:45 -38.17160 146.14099 3484 ft 144 kts 100°
2026-04-17 09:45 -38.17217 146.15362 3487 ft 143 kts 100°
2026-04-17 09:46 -38.17287 146.16619 3489 ft 143 kts 100°
2026-04-17 09:46 -38.17330 146.17882 3490 ft 144 kts 97°
2026-04-17 09:46 -38.17357 146.19151 3491 ft 143 kts 97°
2026-04-17 09:46 -38.17381 146.20419 3490 ft 144 kts 97°
2026-04-17 09:47 -38.17407 146.21699 3490 ft 145 kts 97°
2026-04-17 09:47 -38.17436 146.22976 3489 ft 144 kts 97°
2026-04-17 09:47 -38.17467 146.24252 3489 ft 145 kts 97°
2026-04-17 09:47 -38.17498 146.25530 3490 ft 144 kts 97°
2026-04-17 09:48 -38.17526 146.26794 3488 ft 143 kts 97°
2026-04-17 09:48 -38.17549 146.28047 3489 ft 144 kts 97°
2026-04-17 09:48 -38.17623 146.29333 3489 ft 143 kts 102°
2026-04-17 09:48 -38.17719 146.30588 3489 ft 143 kts 102°
2026-04-17 09:49 -38.17816 146.31847 3498 ft 144 kts 103°
2026-04-17 09:49 -38.17908 146.33124 3487 ft 145 kts 105°
2026-04-17 09:49 -38.18015 146.34380 3484 ft 145 kts 106°
2026-04-17 09:49 -38.18144 146.35650 3483 ft 146 kts 108°
2026-04-17 09:50 -38.18297 146.36925 3486 ft 146 kts 108°
2026-04-17 09:50 -38.18471 146.38192 3485 ft 144 kts 110°
2026-04-17 09:50 -38.18671 146.39434 3484 ft 143 kts 111°
2026-04-17 09:50 -38.18877 146.40672 3483 ft 143 kts 111°
2026-04-17 09:51 -38.19085 146.41912 3484 ft 144 kts 111°
2026-04-17 09:51 -38.19292 146.43153 3484 ft 143 kts 111°
2026-04-17 09:51 -38.19500 146.44391 3484 ft 143 kts 111°
2026-04-17 09:51 -38.19707 146.45626 3485 ft 143 kts 111°
2026-04-17 09:52 -38.19909 146.46862 3486 ft 142 kts 111°
2026-04-17 09:52 -38.20104 146.48095 3486 ft 142 kts 111°
2026-04-17 09:52 -38.20299 146.49328 3487 ft 142 kts 111°
2026-04-17 09:52 -38.20493 146.50563 3486 ft 143 kts 111°
2026-04-17 09:53 -38.20574 146.51848 3484 ft 150 kts 95°
2026-04-17 09:53 -38.20450 146.53176 3479 ft 152 kts 88°
2026-04-17 09:53 -38.20261 146.54502 3481 ft 153 kts 83°
2026-04-17 09:53 -38.20032 146.55820 3481 ft 152 kts 82°
2026-04-17 09:54 -38.19800 146.57120 3479 ft 151 kts 82°
2026-04-17 09:54 -38.19565 146.58423 3481 ft 152 kts 82°
2026-04-17 09:54 -38.19314 146.59725 3481 ft 152 kts 81°
2026-04-17 09:54 -38.19063 146.61030 3481 ft 152 kts 81°
2026-04-17 09:55 -38.18815 146.62332 3482 ft 152 kts 81°
2026-04-17 09:55 -38.18569 146.63617 3472 ft 152 kts 82°
2026-04-17 09:55 -38.18315 146.64921 3473 ft 152 kts 81°
2026-04-17 09:55 -38.18058 146.66228 3476 ft 153 kts 81°
2026-04-17 09:56 -38.17803 146.67539 3477 ft 153 kts 81°
2026-04-17 09:56 -38.17551 146.68848 3475 ft 152 kts 81°
2026-04-17 09:56 -38.17305 146.70155 3476 ft 152 kts 81°
2026-04-17 09:56 -38.17051 146.71457 3475 ft 152 kts 81°
2026-04-17 09:57 -38.16786 146.72759 3476 ft 152 kts 81°
2026-04-17 09:57 -38.16483 146.74047 3465 ft 153 kts 73°
2026-04-17 09:57 -38.16099 146.75298 3466 ft 151 kts 70°
2026-04-17 09:57 -38.15710 146.76541 3471 ft 151 kts 70°
2026-04-17 09:58 -38.15315 146.77780 3469 ft 152 kts 70°
2026-04-17 09:58 -38.14918 146.79018 3472 ft 151 kts 70°
2026-04-17 09:58 -38.14523 146.80254 3471 ft 151 kts 70°
2026-04-17 09:58 -38.14129 146.81493 3477 ft 151 kts 70°
2026-04-17 09:59 -38.13733 146.82725 3473 ft 150 kts 70°
2026-04-17 09:59 -38.13339 146.83958 3472 ft 151 kts 70°
2026-04-17 09:59 -38.12942 146.85199 3474 ft 152 kts 71°
2026-04-17 09:59 -38.12534 146.86444 3473 ft 153 kts 70°
2026-04-17 10:00 -38.12124 146.87686 3474 ft 153 kts 72°
2026-04-17 10:00 -38.11815 146.88972 3475 ft 152 kts 79°
2026-04-17 10:00 -38.11548 146.90268 3475 ft 151 kts 81°
2026-04-17 10:00 -38.11286 146.91563 3476 ft 151 kts 80°
2026-04-17 10:01 -38.11025 146.92855 3475 ft 151 kts 81°
2026-04-17 10:01 -38.10763 146.94145 3475 ft 151 kts 80°
2026-04-17 10:01 -38.10512 146.95438 3474 ft 151 kts 83°
2026-04-17 10:01 -38.10291 146.96738 3473 ft 150 kts 83°
2026-04-17 10:02 -38.10091 146.98040 3472 ft 150 kts 87°
2026-04-17 10:02 -38.09955 146.99350 3474 ft 149 kts 89°
2026-04-17 10:02 -38.09827 147.00620 3382 ft 136 kts 89°
2026-04-17 10:02 -38.09677 147.01696 3018 ft 115 kts 87°
2026-04-17 10:03 -38.09528 147.02693 2627 ft 116 kts 87°
2026-04-17 10:03 -38.09394 147.03702 2237 ft 116 kts 88°
2026-04-17 10:03 -38.09268 147.04712 1856 ft 115 kts 87°
2026-04-17 10:03 -38.09196 147.05365 1689 ft 112 kts 88°
2026-04-17 10:04 -38.09101 147.06349 1561 ft 113 kts 92°
2026-04-17 10:04 -38.09083 147.07338 1433 ft 111 kts 98°
2026-04-17 10:04 -38.09118 147.08300 1096 ft 107 kts 98°
2026-04-17 10:04 -38.09174 147.09222 749 ft 103 kts 98°
2026-04-17 10:05 -38.09259 147.10109 588 ft 101 kts 99°
2026-04-17 10:05 -38.09366 147.11007 518 ft 104 kts 102°
2026-04-17 10:05 -38.09529 147.11891 315 ft 100 kts 103°
2026-04-17 10:05 -38.09675 147.12649 119 ft 66 kts 121°
2026-04-17 10:06 -38.09796 147.12845 40 ft 9 kts 164°